Hourly Data Report for November 29, 2019

TORONTO CITY
ONTARIO
Current Station Operator: ECCC - MSC

43°40'00.000" N
79°24'00.000" W
112.50 m
6158355
71508
XTO

Download Data

Hourly Data (November 2019)
Hourly Data Report for November 29, 2019
TIME
LST
Temp Definition
°C
Dew Point Definition
°C
Rel Hum Definition
%
Precip. Amount Definition
mm

Wind Dir Definition
10's deg

Wind Spd Definition
km/h
Visibility Definition
km
Stn Press Definition
kPa
Hmdx Definition


Wind Chill Definition


Weather Definition


00:00 -1.7 -6.5 70 0.0       101.59     LegendNANA
01:00 -2.1 -7.0 69 0.0       101.65     LegendNANA
02:00 -2.0 -6.8 69 0.0       101.67     LegendNANA
03:00 -2.1 -6.6 71 0.0       101.62     LegendNANA
04:00 -2.1 -6.5 71 0.0       101.60     LegendNANA
05:00 -1.9 -6.4 72 0.0       101.67     LegendNANA
06:00 -2.1 -6.5 72 0.0       101.62     LegendNANA
07:00 -2.2 -6.5 72 0.0       101.58     LegendNANA
08:00 -2.1 -6.4 73 0.0       101.62     LegendNANA
09:00 -1.9 -6.0 73 0.0       101.62     LegendNANA
10:00 -1.7 -5.7 74 0.0       101.60     LegendNANA
11:00 -1.5 -5.6 73 0.0       101.62     LegendNANA
12:00 -1.0 -5.0 74 0.0       101.51     LegendNANA
13:00 -0.8 -5.2 72 0.0       101.42     LegendNANA
14:00 -0.8 -5.6 70 0.0       101.35     LegendNANA
15:00 -0.6 -5.7 69 0.0       101.30     LegendNANA
16:00 -0.5 -5.5 69 0.0       101.29     LegendNANA
17:00 -0.5 -5.5 69 0.0       101.24     LegendNANA
18:00 -0.6 -5.3 70 0.0       101.24     LegendNANA
19:00 -0.8 -5.4 71 0.0       101.23     LegendNANA
20:00 -0.9 -5.0 74 0.0       101.20     LegendNANA
21:00 -1.2 -5.6 72 0.0       101.16     LegendNANA
22:00 -1.1 -5.7 71 0.0       101.09     LegendNANA
23:00 -1.4 -5.6 73 0.0       101.05     LegendNANA

Notes on Data Quality.

Legend

  • E = Estimated
  • M = Missing
  • NA = Not Available*
  • [empty] = Indicates an unobserved value
Date modified: